User: anonymous   Login
Location: Unspecified
(0.0000°N, 0.0000°E)
Time: 19:14:01
(UTC+00:00)
Language:

NUDT-PHONESAT - Orbit

View from above orbital plane
View from above orbital plane
View from above satellite
View from above satellite

Ground track
Ground track

The orbit data is extracted from the following two-line orbital elements,

1 40900U 15049B   18019.49221010  .00001937  00000-0  91186-4 0  9999
2 40900  97.4424  29.5210 0013484 182.9233 177.1926 15.20679371129312
Epoch (UTC): 19 January 2018 11:48:46
Eccentricity: 0.0013484
inclination: 97.4424°
perigee height: 494 km
apogee height: 513 km
right ascension of ascending node: 29.5210°
argument of perigee: 182.9233°
revolutions per day: 15.20679371
mean anomaly at epoch: 177.1926°
orbit number at epoch: 12931

The dashed part of the orbit path shows where the satellite is in the earth's shadow,  

DLR